Content
SEND FEEDBACK

Daily
Averages
Monthly
Summary
United States of America

WAITSBURG, WASHINGTON


Home > North America > United States > Washington
Elevation: 1804 feet     Latitude: 46 18N     Longitude: 117 57W

WEATHER
 
SELECT A DAY
Number of Records: 184,822;   Date Range: 1/1/95 - 7/22/14
 
SHARE

PRINT THIS DATA

[ ← Previous Day ]
WEATHER ALMANAC - JANUARY 31, 2013
[ Next Day → ]
[ °C ]   °F
Weather ElementAverageHighLow
Temperature48 °F54 °F (1:53 pm)45 °F (3:53 am)
Dewpoint39.2 °F41 °F (4:53 am)37.9 °F (7:53 pm)
Humidity72 %86 % (4:53 am)59 % (1:53 pm)
Barometer30.30 in30.35 in (9:53 am)30.26 in (7:53 pm)
Wind Speed10.8 mph15 mph (11:53 am)
Weather ElementAverage
Visibility10 mi
Wind DirectionSSW (201.7 °)

Weather ElementTotal
Precipitation0.02 in
Heating Degree Days15.5 (Base 65)
Averaged from 23 records on January 31, 2013
WEATHER CONDITIONS BREAKOUT
WIND DIRECTION BREAKOUT
WEATHER BY HOUR - JANUARY 31, 2013
[ °C ]   °F
Local TimeTemperatureDewpointHumidityBarometerVisibilityWind DirectionWind SpeedGust SpeedPrecipitationEventsConditions
1:53 AM46.0 °F39.0 °F76 %30.33 in10.0 miSouth (190°)11.5 mphOvercast
2:53 AM46.0 °F39.0 °F76 %30.33 in10.0 miSouth (190°)8.1 mph0.00 inRainLight Rain
3:53 AM45.0 °F39.9 °F82 %30.33 in10.0 miSouth (190°)9.2 mph0.01 inRainLight Rain
4:53 AM45.0 °F41.0 °F86 %30.32 in10.0 miSouth (180°)10.4 mph0.00 inRainLight Rain
5:53 AM45.0 °F39.9 °F82 %30.31 in10.0 miSouth (180°)13.8 mph0.00 inMostly Cloudy
6:53 AM45.0 °F39.0 °F80 %30.32 in10.0 miSouth (190°)11.5 mphMostly Cloudy
7:53 AM45.0 °F39.0 °F80 %30.33 in10.0 miSSW (200°)11.5 mphScattered Clouds
8:53 AM48.0 °F39.9 °F74 %30.34 in10.0 miSouth (190°)10.4 mphOvercast
9:53 AM48.9 °F39.9 °F71 %30.35 in10.0 miSSW (200°)10.4 mphOvercast
10:53 AM50.0 °F39.9 °F68 %30.34 in10.0 miSW (220°)13.8 mphScattered Clouds
11:53 AM51.1 °F39.9 °F66 %30.32 in10.0 miSSW (210°)15.0 mphOvercast
12:53 PM51.1 °F39.9 °F66 %30.31 in10.0 miSW (220°)10.4 mphOvercast
1:53 PM54.0 °F39.9 °F59 %30.28 in10.0 miSSW (210°)10.4 mphScattered Clouds
2:53 PM53.1 °F39.0 °F59 %30.28 in10.0 miSW (230°)9.2 mphPartly Cloudy
3:53 PM52.0 °F39.0 °F61 %30.27 in10.0 miSW (220°)12.7 mphMostly Cloudy
4:53 PM50.0 °F39.0 °F66 %30.28 in10.0 miSW (220°)6.9 mphOvercast
5:53 PM48.0 °F39.9 °F74 %30.27 in10.0 miSouth (180°)9.2 mph0.00 inOvercast
6:53 PM48.0 °F39.0 °F71 %30.27 in10.0 miSouth (180°)9.2 mph0.00 inOvercast
7:53 PM46.9 °F37.9 °F71 %30.26 in10.0 miSouth (190°)10.4 mph0.01 inOvercast
8:53 PM48.0 °F37.9 °F68 %30.26 in10.0 miSouth (190°)13.8 mphMostly Cloudy
9:53 PM45.0 °F37.9 °F76 %30.27 in10.0 miSSW (210°)5.8 mphOvercast
10:53 PM46.9 °F37.9 °F71 %30.27 in10.0 miSW (220°)11.5 mphOvercast
11:53 PM46.0 °F37.9 °F73 %30.28 in10.0 miSW (230°)12.7 mphOvercast
Hourly data recorded from KALW, located miles away from Waitsburg, Washington







STORIES FROM OUR PARTNERS